EW3775 Weather Reports


time (UTC)temp
C
wind
direction
speed
KPH
gust
KPH
rain 1hr
cm
rain 24hr
cm
rain mn
cm
humidity
%
barometer
mb
20260504110318 7 162 0.0 11.3 0.00 0.00 0.00 69 1010.0
20260504100322 3 329 0.0 0.0 0.00 0.00 0.00 86 1009.7
20260504081813 3 340 0.0 0.0 0.00 0.00 0.00 85 1009.8
20260504081332 3 340 0.0 0.0 0.00 0.00 0.00 85 1009.8
20260504080832 3 340 0.0 0.0 0.00 0.00 0.00 85 1009.8
20260504080331 3 340 0.0 0.0 0.00 0.00 0.00 85 1009.8
20260504070314 4 343 0.0 0.0 0.00 0.00 0.00 82 1009.7
20260504050339 8 215 0.0 0.0 0.00 0.00 0.00 73 1009.7
20260504045816 8 215 0.0 0.0 0.00 0.00 0.00 73 1009.7
20260504045314 8 215 0.0 0.0 0.00 0.00 0.00 72 1009.7
20260504044814 8 215 0.0 0.0 0.00 0.00 0.00 72 1009.8
20260504044313 8 215 0.0 0.0 0.00 0.00 0.00 71 1009.7
20260504043831 8 215 0.0 0.0 0.00 0.00 0.00 70 1009.8
20260504043330 8 215 0.0 0.0 0.00 0.00 0.00 69 1009.8
20260504042828 8 215 0.0 0.0 0.00 0.00 0.00 68 1009.8
20260504042325 9 215 0.0 0.0 0.00 0.00 0.00 66 1009.8
20260504041824 9 215 0.0 0.0 0.00 0.00 0.00 64 1009.9
20260504041324 9 215 0.0 0.0 0.00 0.00 0.00 63 1009.9
20260504040838 10 215 0.0 0.0 0.00 0.00 0.00 61 1010.0
20260504040318 10 215 0.0 0.0 0.00 0.00 0.00 60 1010.0
20260504035816 10 215 0.0 0.0 0.00 0.00 0.00 59 1010.0
20260504035316 10 215 0.0 0.0 0.00 0.00 0.00 58 1010.0
20260504034835 10 215 0.0 0.0 0.00 0.00 0.00 58 1010.2
20260504034313 10 215 0.0 0.0 0.00 0.00 0.00 58 1010.2
20260504033813 10 271 0.0 0.0 0.00 0.00 0.00 58 1010.3
20260504033313 10 254 0.0 0.0 0.00 0.00 0.00 58 1010.4
20260504032813 10 243 0.0 0.0 0.00 0.00 0.00 59 1010.4
20260504032332 10 228 0.0 0.0 0.00 0.00 0.00 59 1010.5
20260504031832 10 256 0.0 0.0 0.00 0.00 0.00 60 1010.5
20260504031330 10 217 0.0 0.0 0.00 0.00 0.00 61 1010.3
20260504030830 10 328 0.0 0.0 0.00 0.00 0.00 60 1010.5
20260504030329 10 268 0.0 0.0 0.00 0.00 0.00 59 1010.4
20260504025825 10 237 0.0 0.0 0.00 0.00 0.00 58 1010.3
20260504025324 10 217 0.0 0.0 0.00 0.00 0.00 58 1010.3
20260504024823 10 240 0.0 0.0 0.00 0.00 0.00 57 1010.3
20260504024342 10 257 0.0 0.0 0.00 0.00 0.00 57 1010.4
20260504023839 10 247 0.0 0.0 0.00 0.00 0.00 58 1010.5
20260504023318 10 251 0.0 0.0 0.00 0.00 0.00 58 1010.6
20260504022838 10 258 0.0 0.0 0.00 0.00 0.00 58 1010.6
20260504022336 10 270 0.0 1.6 0.00 0.00 0.00 58 1010.6
20260504021834 10 206 0.0 1.6 0.00 0.00 0.00 58 1010.6
20260504021354 10 232 0.0 0.0 0.00 0.00 0.00 58 1010.6
20260504020832 10 280 0.0 0.0 0.00 0.00 0.00 59 1010.6
20260504020332 9 256 0.0 3.2 0.00 0.00 0.00 60 1010.6
20260504015850 8 240 0.0 3.2 0.00 0.00 0.00 64 1010.6
20260504015329 7 291 0.0 1.6 0.00 0.00 0.00 66 1010.6
20260504014828 7 250 0.0 1.6 0.00 0.00 0.00 68 1010.5
20260504014325 8 222 0.0 0.0 0.00 0.00 0.00 68 1010.5
20260504013826 8 222 0.0 0.0 0.00 0.00 0.00 67 1010.4
20260504013345 8 222 0.0 0.0 0.00 0.00 0.00 67 1010.3
20260504012821 7 222 0.0 0.0 0.00 0.00 0.00 68 1010.3
20260504012320 7 222 0.0 0.0 0.00 0.00 0.00 69 1010.3
20260504011819 7 206 0.0 0.0 0.00 0.00 0.00 71 1010.2
20260504011339 7 313 0.0 0.0 0.00 0.00 0.00 71 1010.3
20260504010836 7 320 0.0 0.0 0.00 0.00 0.00 71 1010.4
20260504010352 7 320 0.0 0.0 0.00 0.00 0.00 70 1010.3
20260504005850 7 320 0.0 0.0 0.00 0.00 0.00 70 1010.3
20260504005347 7 272 0.0 0.0 0.00 0.00 0.00 70 1010.2
20260504004824 7 272 0.0 0.0 0.00 0.00 0.00 70 1010.1
20260504004321 7 272 0.0 0.0 0.00 0.00 0.00 69 1010.2
20260504003819 7 272 0.0 0.0 0.00 0.00 0.00 68 1010.0
20260504003320 7 272 0.0 0.0 0.00 0.00 0.00 68 1009.9
20260504002818 7 272 0.0 0.0 0.00 0.00 0.00 67 1009.9
20260504002317 7 271 0.0 0.0 0.00 0.00 0.00 66 1009.8
20260504001815 7 262 0.0 0.0 0.00 0.00 0.00 64 1009.7
20260504001313 7 262 0.0 0.0 0.00 0.00 0.00 63 1009.6
20260504000813 8 262 0.0 0.0 0.00 0.00 0.00 62 1009.6
20260504000333 8 262 0.0 0.0 0.00 0.00 0.00 61 1009.6
20260503235831 8 262 0.0 0.0 0.00 0.00 0.00 60 1009.5
20260503235331 9 262 0.0 0.0 0.00 0.00 0.00 58 1009.5
20260503234848 9 262 0.0 0.0 0.00 0.00 0.00 56 1009.4
20260503234346 10 262 0.0 0.0 0.00 0.00 0.00 55 1009.3
20260503233824 10 262 0.0 0.0 0.00 0.00 0.00 54 1009.2
20260503233322 10 262 0.0 0.0 0.00 0.00 0.00 52 1009.3
20260503232840 11 262 0.0 0.0 0.00 0.00 0.00 51 1009.3
20260503232317 11 256 0.0 0.0 0.00 0.00 0.00 50 1009.3
20260503231836 11 255 0.0 0.0 0.00 0.00 0.00 49 1009.2
20260503231314 11 250 0.0 0.0 0.00 0.00 0.00 50 1009.3
20260503230832 11 266 0.0 0.0 0.00 0.00 0.00 49 1009.2
20260503230332 11 201 0.0 0.0 0.00 0.00 0.00 49 1009.3
20260503225827 11 232 0.0 0.0 0.00 0.00 0.00 49 1009.4
20260503225346 11 210 0.0 0.0 0.00 0.00 0.00 49 1009.4
20260503224825 11 247 0.0 1.6 0.00 0.00 0.00 50 1009.4
20260503224323 11 349 0.0 1.6 0.00 0.00 0.00 50 1009.4
20260503223820 11 238 0.0 8.0 0.00 0.00 0.00 51 1009.5
20260503223319 11 285 0.0 8.0 0.00 0.00 0.00 50 1009.6
20260503222836 11 349 0.0 0.0 0.00 0.00 0.00 50 1009.6
20260503222314 11 234 0.0 0.0 0.00 0.00 0.00 50 1009.6
20260503221813 11 260 0.0 14.5 0.00 0.00 0.00 50 1009.5
20260503221332 11 274 0.0 17.7 0.00 0.00 0.00 50 1009.6
20260503220832 11 208 0.0 1.6 0.00 0.00 0.00 50 1009.6
20260503220348 11 217 0.0 14.5 0.00 0.00 0.00 49 1009.6
20260503215845 11 280 0.0 14.5 0.00 0.00 0.00 49 1009.6
20260503215323 11 226 0.0 8.0 0.00 0.00 0.00 49 1009.6
20260503214822 11 281 0.0 0.0 0.00 0.00 0.00 48 1009.6
20260503214319 11 245 0.0 0.0 0.00 0.00 0.00 47 1009.5
20260503213838 11 249 0.0 0.0 0.00 0.00 0.00 46 1009.5
20260503213317 11 260 0.0 9.7 0.00 0.00 0.00 46 1009.3
20260503212815 11 237 0.0 11.3 0.00 0.00 0.00 47 1009.4
20260503212314 11 181 0.0 6.4 0.00 0.00 0.00 45 1009.2
20260503211813 11 203 0.0 6.4 0.00 0.00 0.00 45 1009.2
20260503211332 11 243 0.0 6.4 0.00 0.00 0.00 44 1009.1
20260503210831 11 316 0.0 14.5 0.00 0.00 0.00 45 1009.1
20260503210330 11 237 3.2 16.1 0.00 0.00 0.00 45 1009.1
20260503205830 11 239 1.6 8.0 0.00 0.00 0.00 44 1009.1
20260503205327 11 270 0.0 1.6 0.00 0.00 0.00 43 1009.1
20260503204847 11 254 0.0 6.4 0.00 0.00 0.00 43 1009.1
20260503204325 11 297 0.0 6.4 0.00 0.00 0.00 42 1009.1
20260503203842 11 322 0.0 0.0 0.00 0.00 0.00 43 1009.2
20260503203342 11 240 0.0 9.7 0.00 0.00 0.00 42 1009.2
20260503202820 11 345 0.0 12.9 0.00 0.00 0.00 41 1009.2
20260503202318 11 268 1.6 12.9 0.00 0.00 0.00 40 1009.2
20260503201818 12 287 0.0 8.0 0.00 0.00 0.00 40 1009.2
20260503201335 12 293 0.0 8.0 0.00 0.00 0.00 39 1009.2
20260503200853 11 248 0.0 6.4 0.00 0.00 0.00 40 1009.3
20260503200352 12 226 0.0 6.4 0.00 0.00 0.00 37 1009.2
20260503195829 12 284 0.0 14.5 0.00 0.00 0.00 38 1009.2
20260503195348 12 208 1.6 14.5 0.00 0.00 0.00 36 1009.3
20260503194826 12 226 0.0 8.0 0.00 0.00 0.00 35 1009.3
20260503194324 12 251 0.0 8.0 0.00 0.00 0.00 35 1009.5
20260503193843 12 291 0.0 14.5 0.00 0.00 0.00 35 1009.6
20260503193322 12 279 0.0 14.5 0.00 0.00 0.00 35 1009.8
20260503192819 12 276 0.0 0.0 0.00 0.00 0.00 36 1009.7
20260503192318 12 359 0.0 9.7 0.00 0.00 0.00 36 1009.7
20260503191816 12 332 0.0 9.7 0.00 0.00 0.00 34 1009.7
20260503191314 12 191 0.0 19.3 0.00 0.00 0.00 37 1009.8
20260503190813 12 228 0.0 19.3 0.00 0.00 0.00 35 1009.8
20260503190333 12 262 0.0 6.4 0.00 0.00 0.00 35 1009.9
20260503185829 12 326 0.0 6.4 0.00 0.00 0.00 37 1010.1
20260503185329 11 226 0.0 12.9 0.00 0.00 0.00 36 1010.1
20260503184827 12 233 0.0 0.0 0.00 0.00 0.00 39 1010.2
20260503184324 11 4 0.0 3.2 0.00 0.00 0.00 38 1010.2
20260503183823 11 322 0.0 0.0 0.00 0.00 0.00 39 1010.2
20260503183322 11 237 0.0 4.8 0.00 0.00 0.00 37 1010.3
20260503182820 11 270 0.0 0.0 0.00 0.00 0.00 38 1010.3
20260503182319 10 259 0.0 4.8 0.00 0.00 0.00 40 1010.3
20260503181832 10 323 0.0 14.5 0.00 0.00 0.00 40 1010.5
20260503181352 10 243 0.0 4.8 0.00 0.00 0.00 39 1010.4
20260503180849 10 305 0.0 12.9 0.00 0.00 0.00 40 1010.5
20260503180348 10 27 0.0 12.9 0.00 0.00 0.00 39 1010.6
20260503175825 11 36 0.0 3.2 0.00 0.00 0.00 38 1010.6
20260503175343 11 214 0.0 3.2 0.00 0.00 0.00 38 1010.6
20260503174819 11 268 0.0 8.0 0.00 0.00 0.00 42 1010.6
20260503174317 11 305 0.0 3.2 0.00 0.00 0.00 40 1010.6
20260503173815 10 260 0.0 0.0 0.00 0.00 0.00 42 1010.8
20260503173313 10 186 0.0 0.0 0.00 0.00 0.00 40 1010.7
20260503172831 9 297 0.0 0.0 0.00 0.03 0.00 43 1010.8
20260503172328 9 288 0.0 6.4 0.00 0.03 0.00 41 1010.9
20260503171826 9 188 0.0 6.4 0.00 0.03 0.00 43 1011.0
20260503171345 9 245 0.0 0.0 0.00 0.03 0.00 42 1010.9
20260503170822 9 313 0.0 0.0 0.00 0.03 0.00 40 1011.0
20260503170319 9 45 0.0 3.2 0.00 0.03 0.00 43 1011.0
20260503150829 6 305 0.0 0.0 0.00 0.03 0.00 56 1012.2
20260503150330 5 313 0.0 4.8 0.00 0.03 0.00 56 1012.2
20260503131336 6 12 0.0 1.6 0.00 0.03 0.00 61 1012.1
20260503130814 6 306 0.0 1.6 0.00 0.03 0.00 64 1012.1
20260503130314 6 25 0.0 0.0 0.00 0.03 0.00 65 1012.1